Location: Unspecified
(0.0000°N, 0.0000°E)
Time: 23:30:08
(UTC+02:00)

Sapphire - Visible Passes

Search period start: 22 May 2017 00:00
Search period end: 01 June 2017 00:00
Orbit: 784 x 797 km, 67.1° (Epoch: 21 May)

Date Brightness Start Highest point End Pass type
(mag) Time Alt. Az. Time Alt. Az. Time Alt. Az.
22 May ? 20:12:39 10° S 20:17:57 59° ESE 20:23:15 10° NNE visible
23 May ? 07:09:04 10° NE 07:11:02 12° ENE 07:12:59 10° E visible
23 May ? 21:27:47 10° W 21:30:28 14° WNW 21:33:10 10° NW visible
24 May ? 20:55:46 10° WSW 20:59:49 22° WNW 21:03:53 10° NNW visible
25 May ? 20:24:23 10° SW 20:29:11 33° WNW 20:34:00 10° N visible
26 May ? 07:17:06 10° N 07:22:19 50° ENE 07:27:32 10° SE visible
27 May ? 06:46:55 10° N 06:51:42 32° ENE 06:56:28 10° SE visible
28 May ? 06:17:04 10° NNE 06:21:04 21° ENE 06:25:03 10° ESE visible
29 May ? 05:47:51 10° NE 05:50:25 13° ENE 05:52:58 10° E visible
29 May ? 07:28:33 10° NW 07:33:33 39° WSW 07:38:34 10° S visible
30 May ? 06:57:37 10° NNW 07:02:56 61° WSW 07:08:15 10° S visible
31 May ? 06:26:54 10° NNW 06:32:18 86° ENE 06:37:44 10° SSE visible
